Regional Weather Roundup
Issued by NWS Green Bay, WI

Home | Current Version | Previous Version | Graphics & Text | Print | Product List | Glossary Off
Versions: 1 2 3 4 5 6 7 8 9 10 11 12 13 14 15 16 17 18 19 20 21 22 23 24 25 26 27 28 29 30 31 32 33 34 35 36 37 38 39 40 41 42 43 44 45 46 47 48 49 50

000
ASUS43 KGRB 030911
RWRGRB

NORTH-CENTRAL AND NORTHEAST WISCONSIN REGIONAL WEATHER ROUNDUP
NATIONAL WEATHER SERVICE GREEN BAY WI
300 AM CST SAT DEC 03 2016

WIZ005-009-010>012-018-019-031000-
NORTH CENTRAL WISCONSIN

CITY           SKY/WX    TMP DP  RH WIND       PRES   REMARKS
IRONWOOD       FLURRIES  28  26  92 SW6       30.25
MANITOWISH WTR CLOUDY    26  26 100 W5        30.23S
ARBOR VITAE    CLOUDY    29  27  91 W5        30.23S
EAGLE RIVER    FLURRIES  28  28 100 CALM      30.22S
LAND O LAKES   CLOUDY    29  27  92 CALM      30.23S
RHINELANDER    CLOUDY    28  26  92 W3        30.23S
PHILLIPS       CLOUDY    26  25  97 CALM      30.24F
ANTIGO         CLOUDY    28  25  89 W5        30.24S
TOMAHAWK       CLOUDY    26  22  84 W5        30.25S
MERRILL        CLOUDY    28  23  81 W6        30.26S
$$

WIZ013-073-031000-
NORTHEAST WISCONSIN

CITY           SKY/WX    TMP DP  RH WIND       PRES   REMARKS
IRON MOUNTAIN  NOT AVBL
MARINETTE      CLOUDY    34  28  79 W3        30.26
OCONTO         CLOUDY    33  28  83 W6        30.27S
$$

WIZ017-030-035>037-045-031000-
CENTRAL WISCONSIN

CITY           SKY/WX    TMP DP  RH WIND       PRES   REMARKS
MEDFORD        CLOUDY    27  22  81 NW3       30.25S
WAUSAU         NOT AVBL
MOSINEE        CLOUDY    28  25  86 NW8       30.27S
MARSHFIELD     NOT AVBL
WISC RAPIDS    NOT AVBL
STEVENS POINT  CLOUDY    28  22  78 CALM      30.28S
WAUPACA        CLOUDY    33  25  73 W5        30.29S
SHAWANO        CLOUDY    34  26  72 CALM      30.28R
CLINTONVILLE   CLOUDY    32  25  74 W6        30.28R
WAUTOMA        CLOUDY    31  25  78 W9        30.30
$$

WIZ038-039-048-051-031000-
FOX VALLEY

CITY           SKY/WX    TMP DP  RH WIND       PRES   REMARKS
NWS GREEN BAY  CLOUDY    34  28  79 W6        30.28S
APPLETON       CLOUDY    32  23  69 W8        30.26S
OSHKOSH        CLOUDY    31  22  69 W7        30.28S
FOND DU LAC    CLOUDY    31  21  66 NW6       30.29F
$$

WIZ022-050-052-031000-
EAST CENTRAL WISCONSIN

CITY           SKY/WX    TMP DP  RH WIND       PRES   REMARKS
EPHRAIM        CLOUDY    35  30  82 NW3       30.23F
WASHINGTON ISL CLOUDY    35  30  83 NW6       30.24S
STURGEON BAY   CLOUDY    35  29  78 NW6       30.26S
MANITOWOC      NOT AVBL
SHEBOYGAN      CLOUDY    32  24  72 W7        30.29S
$$

LMZ563-521-522-541>543-031000-
LAKESHORE

STATION/POSITION TIME  TEMP    WIND        PRES    VSBY  WAVE
                       AIR SEA DIR/SP/G                  HT/PER
                 (UTC) (F)     (DEG/KT/KT) (MB)    (MI)  (FT/S)
SHEBOYGAN LKSHOR 0900   33     260/ 10/ 12 1026.0S
KEWAUNEE LKSHORE 0848   33     280/  6/  8 1024.3S
ALGOMA MARINA    0836          290/  3/  5   N/A
NORTHPORT PIER   0840   37     310/  9/ 13 1024.0S
SISTER BAY LKSHO 0839   36     340/ 14/ 16   N/A
CHAMBERS ISLAND  0840   36     270/  3/  8 1024.0S
MENOMINEE LKSHOR 0848   35     270/  5/ 10 1023.7F
$$




USA.gov is the U.S. government's official web portal to all federal, state and local government web resources and services.